Tracking 19638 objects as of 21-Apr-2019
HD Live streaming from Space Station
objects crossing your sky now

CZ-4 DEB

Track CZ-4 DEB now!
10-day predictions


NORAD ID: 26756
Int'l Code: 1999-057MD
Perigee: 711.8 km
Apogee: 830.7 km
Inclination: 98.6 °
Period: 100.1 minutes
Semi major axis: 7142 km
RCS: 0.0134 m2 (small)
Launch date: October 14, 1999
Source: People's Republic of China (PRC)
Launch site: Taiyaun Space Center, China (TSC)

Note: This is SATELLITE DEBRIS
aabbcc
Your satellite tracking list
Your tracking list is empty




NASA's NSSDC Master Catalog

Two Line Element Set (TLE):
1 26756U 99057MD  19110.11378647  .00000037  00000-0  26628-4 0  9993
2 26756  98.6405  69.4698 0083224 284.7034  74.4940 14.38292399947816
Source of the keplerian elements: AFSPC